Date,TemperatureHighF,TemperatureAvgF,TemperatureLowF,DewpointHighF,DewpointAvgF,DewpointLowF,HumidityHigh,HumidityAvg,HumidityLow,PressureMaxIn,PressureMinIn,WindSpeedMaxMPH,WindSpeedAvgMPH,GustSpeedMaxMPH,PrecipitationSumIn
2013-1-1,30,25,21,30,22,16,97,86,78,30.12,30.00,13,3,16,0.00
2013-1-2,22,18,14,18,14,11,90,84,78,30.26,30.10,8,2,12,0.00
2013-1-3,28,21,12,24,17,9,90,85,73,30.24,30.12,15,4,19,0.00
2013-1-4,30,26,24,24,20,19,89,79,68,30.25,30.11,19,8,27,0.00
2013-1-5,35,29,24,28,24,20,92,81,72,30.36,30.11,11,4,19,0.01
2013-1-6,36,33,30,34,30,28,99,87,78,30.24,29.95,16,5,18,0.00
2013-1-7,36,31,28,30,27,24,95,85,69,30.45,30.24,17,4,23,0.04
2013-1-8,44,33,25,30,26,22,92,77,52,30.32,30.23,12,2,16,0.06
2013-1-9,47,40,34,39,33,29,89,77,65,30.48,30.15,19,5,26,0.02
2013-1-10,43,35,26,34,29,24,100,78,59,30.60,30.20,16,2,18,0.01
2013-1-11,56,48,41,54,43,28,99,85,60,30.20,29.81,20,6,25,0.52
2013-1-12,60,54,48,56,52,47,99,93,83,29.99,29.83,13,4,20,0.00
2013-1-13,64,51,36,60,49,35,100,94,83,30.01,29.69,23,4,29,0.38
2013-1-14,36,28,26,35,25,21,99,87,80,30.45,30.02,18,4,23,0.00
2013-1-15,34,28,26,25,23,21,87,80,62,30.44,30.12,10,2,13,0.00
2013-1-16,34,31,28,26,24,22,84,76,63,30.13,29.88,17,4,23,0.00
2013-1-17,34,32,24,30,26,17,88,80,72,30.27,30.00,17,4,31,0.00
2013-1-18,35,26,20,22,17,10,82,67,58,30.50,30.10,22,7,28,0.00
2013-1-19,50,43,34,34,28,23,66,57,50,30.11,29.68,29,9,35,0.00
2013-1-20,47,28,20,35,19,11,77,69,59,30.18,29.64,26,10,39,0.00
2013-1-21,20,17,9,13,9,3,88,73,58,30.16,29.96,22,7,26,0.00
2013-1-22,8,7,5,5,3,2,90,86,77,30.32,30.11,20,6,22,0.00
2013-1-23,13,10,6,11,6,2,91,84,77,30.33,30.12,12,3,16,0.00
2013-1-24,20,16,13,13,9,6,92,76,61,30.60,30.12,17,3,20,0.02
2013-1-25,17,15,13,15,11,7,91,83,73,30.55,30.07,11,1,16,0.00
2013-1-26,23,21,17,21,18,15,94,89,82,30.47,30.11,13,2,17,0.00
2013-1-27,29,23,15,26,18,12,94,80,68,30.55,30.27,13,2,16,0.00
2013-1-28,48,40,28,47,39,26,100,97,88,30.28,29.92,17,6,25,0.59
2013-1-29,61,50,38,57,49,38,100,96,83,30.04,29.60,23,4,30,0.13
2013-1-30,63,56,37,57,52,33,99,87,78,29.59,29.12,36,10,36,0.39
2013-1-31,36,24,18,33,19,10,92,79,66,29.89,29.27,29,11,36,0.01
2013-2-1,19,14,11,14,10,6,92,83,72,30.34,29.87,19,8,23,0.00
2013-2-2,22,17,12,21,14,6,96,89,76,30.32,29.99,13,3,18,0.00
2013-2-3,20,18,15,20,16,13,100,92,82,30.05,29.89,13,4,21,0.01
2013-2-4,24,20,16,22,18,12,93,90,77,30.07,29.89,14,2,19,0.00
2013-2-5,29,24,21,24,21,19,94,88,74,29.95,29.86,10,2,13,0.03
2013-2-6,31,25,20,26,19,15,94,76,56,30.36,29.95,14,3,20,0.15
2013-2-7,46,33,23,32,24,16,79,71,57,30.32,29.86,14,4,21,0.04
2013-2-8,40,30,24,37,28,21,97,91,79,30.26,29.72,28,9,33,0.22
2013-2-9,30,24,22,23,20,19,95,87,77,30.45,30.26,14,4,21,0.02
2013-2-10,49,36,24,35,24,18,79,62,42,30.33,29.79,21,6,30,0.00
2013-2-11,50,41,32,45,35,25,94,79,68,29.91,29.64,26,10,45,0.00
2013-2-12,33,31,30,27,25,24,83,78,74,30.09,29.91,16,7,29,0.00
2013-2-13,35,28,25,27,24,22,92,83,72,29.86,29.76,11,1,13,0.00
2013-2-14,38,32,25,36,29,23,94,89,78,29.88,29.78,21,6,26,0.01
2013-2-15,36,30,25,30,24,18,92,82,71,30.11,29.88,17,4,30,0.01
2013-2-16,28,23,19,20,18,14,92,80,56,30.10,29.98,11,2,20,0.02
2013-2-17,20,18,13,17,13,9,91,81,68,30.28,29.99,15,4,20,0.00
2013-2-18,46,29,13,34,20,8,84,69,57,30.30,29.73,19,7,29,0.05
2013-2-19,48,31,16,39,26,10,95,85,59,29.98,29.57,27,10,35,0.14
2013-2-20,20,18,15,16,13,10,92,80,71,30.25,29.98,18,8,26,0.00
2013-2-21,21,19,16,17,14,12,89,82,75,30.40,30.23,15,3,22,0.00
2013-2-22,38,29,18,36,26,14,96,88,78,30.33,29.94,20,5,31,0.07
2013-2-23,36,32,28,32,28,23,89,83,73,29.97,29.90,14,3,19,0.00
2013-2-24,34,29,26,29,24,21,92,81,70,30.16,29.90,16,5,21,0.00
2013-2-25,44,32,23,30,26,21,95,78,57,30.23,30.08,10,2,13,0.00
2013-2-26,38,34,30,36,30,23,96,83,68,30.10,29.50,23,8,36,0.61
2013-2-27,41,37,32,39,36,31,98,95,87,29.64,29.49,13,5,23,0.28
2013-2-28,33,32,29,32,30,28,100,95,90,29.89,29.58,20,5,22,0.04
2013-3-1,29,26,24,28,24,21,96,91,83,30.05,29.89,14,6,22,0.00
2013-3-2,26,24,22,24,22,19,98,90,88,30.03,30.00,15,4,18,0.00
2013-3-3,26,23,22,22,20,17,92,87,78,30.06,29.99,15,4,20,0.00
2013-3-4,33,25,21,24,20,17,91,80,66,30.15,30.06,13,2,17,0.04
2013-3-5,45,30,19,27,22,17,93,75,41,30.14,29.69,14,3,19,0.03
2013-3-6,46,36,31,34,29,26,92,75,60,30.17,29.69,17,4,20,0.00
2013-3-7,34,32,27,32,30,25,95,93,89,30.38,30.16,11,3,15,0.00
2013-3-8,35,30,26,31,27,24,94,91,84,30.48,30.37,8,1,12,0.00
2013-3-9,47,30,23,34,26,21,97,88,59,30.46,30.32,8,1,13,0.01
2013-3-10,68,64,62,44,42,40,47,43,38,30.00,29.83,20,6,23,0.00
2013-3-11,62,53,42,50,44,38,97,75,45,29.85,29.53,24,6,33,0.83
2013-3-12,42,35,32,37,30,26,90,83,77,29.98,29.73,19,7,25,0.00
2013-3-13,33,29,25,28,24,19,91,79,64,30.16,29.90,23,7,28,0.01
2013-3-14,35,30,25,24,20,17,76,68,58,30.25,30.11,19,5,25,0.00
2013-3-15,32,32,32,21,21,21,64,64,64,30.11,29.81,3,3,0,0.00
2013-3-16,32,32,32,21,21,21,64,64,64,29.97,29.63,3,3,0,0.00
2013-3-17,33,32,29,24,22,21,80,68,64,30.24,29.97,10,4,16,0.10
2013-3-18,35,33,32,34,29,23,96,83,70,30.19,29.53,25,10,28,0.01
2013-3-19,35,32,26,34,29,19,96,87,69,29.91,29.63,22,15,30,0.00
2013-3-20,28,27,25,22,20,18,86,73,68,29.94,29.83,15,4,21,0.00
2013-3-21,27,26,18,24,20,16,90,80,71,29.92,29.80,15,6,19,0.00
2013-3-22,35,29,26,26,24,21,90,82,71,30.02,29.85,13,8,17,0.04
2013-3-23,39,36,26,30,27,25,94,70,63,30.08,29.95,12,2,13,0.03
2013-3-24,36,35,33,26,25,22,67,67,62,30.03,29.46,13,3,18,0.00
2013-3-25,36,34,33,34,29,24,97,82,67,29.82,29.40,12,6,18,0.32
2013-3-26,40,36,34,33,32,32,95,89,76,30.05,29.82,12,4,17,0.00
2013-3-27,41,39,32,32,30,29,90,73,62,30.17,30.04,18,6,23,0.07
2013-3-28,42,41,36,34,30,29,81,66,62,30.26,30.12,10,6,14,0.00
2013-3-29,48,44,37,34,30,27,77,60,47,30.27,30.17,12,2,16,0.00
2013-3-30,55,49,39,33,29,26,60,46,37,30.23,29.96,12,3,16,0.00
2013-3-31,53,51,46,46,37,29,87,60,44,29.96,29.63,15,4,21,0.00
2013-4-1,51,42,31,43,29,17,75,61,44,30.07,29.63,21,6,24,0.00
2013-4-2,38,36,28,23,19,13,79,52,41,30.21,30.04,22,8,29,0.00
2013-4-3,38,36,31,23,19,16,70,50,45,30.44,30.20,14,5,22,0.00
2013-4-4,56,44,29,26,20,16,60,39,21,30.40,29.95,15,2,17,0.00
2013-4-5,52,44,30,34,26,18,82,50,32,30.23,29.89,14,3,21,0.03
2013-4-6,55,41,25,24,20,16,74,46,28,30.29,29.90,18,4,21,0.00
2013-4-7,68,56,44,48,39,22,77,54,30,30.00,29.73,21,7,34,0.00
2013-4-8,70,56,40,57,46,35,91,71,56,30.04,29.79,21,5,31,0.30
2013-4-9,78,60,44,61,51,42,95,73,54,30.09,29.82,16,3,26,0.00
2013-4-10,65,53,43,62,49,42,99,87,72,29.94,29.76,14,2,24,0.86
2013-4-11,53,45,42,51,44,41,99,98,91,29.92,29.57,12,3,23,0.31
2013-4-12,56,44,39,55,42,34,100,92,77,29.84,29.42,18,4,25,0.32
2013-4-13,42,40,37,38,34,30,91,82,72,30.03,29.83,18,6,26,0.04
2013-4-14,56,44,34,42,35,30,88,73,57,30.14,29.95,16,2,17,0.00
2013-4-15,70,60,50,55,48,39,76,64,54,30.01,29.91,18,4,24,0.00
2013-4-16,67,56,48,61,52,47,96,88,76,30.18,29.90,16,3,21,0.09
2013-4-17,67,55,45,50,44,38,98,70,48,30.29,30.01,14,3,16,0.00
2013-4-18,84,70,59,67,60,50,92,74,44,30.03,29.62,30,7,32,0.00
2013-4-19,72,52,39,62,45,30,95,76,60,29.83,29.33,23,9,32,0.29
2013-4-20,41,37,32,32,29,26,89,73,60,30.43,29.83,22,7,28,0.02
2013-4-21,48,39,29,34,29,25,92,67,49,30.62,30.43,15,3,18,0.00
2013-4-22,65,51,37,42,35,27,70,54,42,30.47,30.19,16,3,21,0.00
2013-4-23,72,59,44,48,40,31,68,50,39,30.21,29.84,19,5,22,0.00
2013-4-24,62,46,35,54,43,35,98,91,58,30.16,29.69,17,4,24,0.60
2013-4-25,51,41,32,42,35,30,97,81,55,30.35,30.17,20,3,26,0.12
2013-4-26,59,46,31,39,34,27,97,68,41,30.48,30.35,9,1,13,0.00
2013-4-27,72,57,44,49,40,33,72,54,34,30.38,30.08,9,1,17,0.00
2013-4-28,58,56,53,56,49,40,98,81,51,30.08,29.85,15,2,21,0.20
2013-4-29,68,59,55,58,55,53,99,88,66,29.96,29.85,13,2,15,0.03
2013-4-30,76,64,53,60,56,52,100,77,53,30.09,29.96,13,2,21,0.00
2013-5-1,82,68,56,62,56,51,86,66,45,30.22,30.09,17,3,22,0.00
2013-5-2,81,69,57,56,47,39,56,46,34,30.28,30.12,14,2,18,0.00
2013-5-3,78,68,57,49,44,40,60,44,31,30.16,30.05,17,4,23,0.00
2013-5-4,74,64,53,48,44,40,68,50,32,30.14,30.03,16,4,23,0.00
2013-5-5,76,65,54,46,41,33,68,45,23,30.07,29.95,15,4,26,0.00
2013-5-6,78,64,51,55,46,32,71,53,32,30.02,29.93,13,3,20,0.00
2013-5-7,76,66,58,60,56,53,85,70,51,30.01,29.91,11,2,14,0.00
2013-5-8,73,64,57,60,56,54,92,76,59,29.96,29.90,10,1,16,0.02
2013-5-9,79,67,54,58,51,40,98,64,26,29.95,29.89,10,1,13,0.00
2013-5-10,73,66,59,65,57,45,97,75,45,29.90,29.75,14,3,22,0.15
2013-5-12,50,45,41,36,33,30,71,63,55,30.07,29.97,18,6,29,0.04
2013-5-13,51,43,36,34,30,27,76,61,45,30.18,30.05,16,3,19,0.00
2013-5-14,68,52,39,47,38,28,69,58,46,30.16,29.78,18,2,24,0.00
2013-5-15,84,69,56,64,55,44,82,62,38,29.82,29.64,17,3,26,0.01
2013-5-16,80,68,52,54,50,45,91,57,30,29.94,29.72,10,1,15,0.00
2013-5-17,79,66,55,59,47,42,63,50,39,30.10,29.93,12,2,18,0.00
2013-5-18,86,70,58,62,53,44,67,55,34,30.11,29.97,12,2,16,0.00
2013-5-19,84,73,62,69,64,55,93,75,57,30.02,29.88,13,2,17,0.00
2013-5-20,86,76,65,74,69,63,95,79,62,29.94,29.80,12,2,20,0.00
2013-5-21,87,78,70,72,68,64,96,76,52,29.84,29.71,16,2,22,0.00
2013-5-22,86,76,64,68,65,62,98,71,54,29.77,29.63,25,4,29,0.78
2013-5-23,72,35,-39,64,33,-42,99,92,73,30.01,29.67,16,2,23,0.33
2013-5-24,44,42,39,42,37,35,98,84,72,30.33,30.01,18,2,23,0.01
2013-5-25,60,48,35,44,38,32,97,71,51,30.37,30.26,15,2,19,0.00
2013-5-26,66,52,36,46,40,34,96,67,40,30.32,30.22,11,1,13,0.00
2013-5-27,60,52,40,51,45,38,95,78,52,30.26,30.03,10,1,18,0.06
2013-5-28,82,64,-39,72,59,-43,99,85,63,30.04,29.82,13,3,23,0.49
2013-5-29,86,78,72,71,66,62,84,69,57,29.99,29.87,16,3,23,0.00
2013-5-30,88,78,68,72,66,63,87,67,47,30.09,29.97,17,2,19,0.00
2013-5-31,86,75,66,71,67,64,99,78,58,30.01,29.89,16,3,25,1.03
2013-6-1,83,72,67,72,68,62,99,88,68,29.90,29.69,16,3,24,0.68
2013-6-2,76,69,60,68,64,55,99,84,63,29.89,29.68,20,4,23,0.48
2013-6-3,63,56,50,55,48,41,88,73,46,30.08,29.89,11,1,20,0.00
2013-6-4,68,57,45,54,46,42,91,68,48,30.16,30.07,10,1,15,0.00
2013-6-5,78,63,49,61,51,45,90,68,48,30.14,29.91,12,1,17,0.00
2013-6-6,64,11,-39,63,9,-39,98,93,73,29.90,29.78,7,0,12,0.31
2013-6-7,-39,-39,-39,-39,-39,-39,98,98,98,29.87,29.80,6,0,11,0.01
2013-6-8,70,20,-39,59,15,-44,98,85,63,30.08,29.86,7,0,11,0.01
2013-6-9,81,68,55,64,59,52,92,74,55,30.11,29.93,13,2,16,0.00
2013-6-10,73,38,-39,70,36,-44,99,94,75,29.93,29.70,13,1,16,0.30
2013-6-11,77,30,-39,67,26,-44,98,87,67,30.10,29.72,13,2,19,0.00
2013-6-12,77,72,65,72,68,64,96,87,72,29.88,29.64,9,1,13,0.00
2013-6-13,72,30,-39,69,28,-44,99,91,69,29.84,29.42,23,3,26,0.55
2013-6-14,71,62,54,62,58,52,98,86,62,30.06,29.83,10,1,16,0.00
2013-6-15,80,65,48,63,56,48,99,75,45,30.10,29.94,9,1,16,0.01
2013-6-16,81,72,64,70,66,60,99,83,68,29.93,29.80,14,2,18,0.12
2013-6-17,84,67,-39,72,60,-43,99,80,55,29.90,29.82,9,1,16,0.00
2013-6-18,77,67,58,66,60,51,92,78,64,30.00,29.82,14,2,22,0.00
2013-6-19,74,64,52,57,52,49,97,69,51,30.14,29.99,11,1,19,0.00
2013-6-20,81,68,55,58,52,41,85,60,30,30.20,30.13,12,1,15,0.00
2013-6-21,86,74,60,66,59,48,75,61,49,30.21,30.08,9,1,11,0.00
2013-6-22,89,79,68,74,68,61,80,69,60,30.10,29.96,14,2,17,0.00
2013-6-23,90,81,71,72,70,67,90,70,50,30.06,29.95,13,2,18,0.00
2013-6-24,89,80,70,72,68,64,82,69,52,30.06,29.91,12,2,20,0.00
2013-6-25,88,76,68,75,70,67,98,82,59,29.95,29.79,19,2,30,0.11
2013-6-26,87,38,-39,74,12,-100,96,50,65,29.85,29.71,8,1,14,0.22
2013-6-27,82,72,69,73,70,65,99,92,72,29.75,29.60,5,0,13,0.22
2013-6-28,79,48,-39,71,44,-44,99,88,72,29.59,29.45,12,2,18,0.01
2013-6-29,78,52,-39,70,48,-39,99,90,72,29.66,29.49,8,1,13,0.11
2013-6-30,76,69,63,68,65,62,98,87,73,29.85,29.65,11,1,13,0.01
2013-7-1,72,67,63,68,65,62,98,94,87,29.96,29.81,10,2,13,0.08
2013-7-2,83,66,-39,73,62,-43,99,88,70,30.09,29.92,7,1,12,0.00
2013-7-3,85,79,67,75,71,66,98,79,63,30.08,30.00,9,1,15,0.00
2013-7-4,80,73,68,73,70,66,100,89,75,30.12,30.06,12,2,19,0.14
2013-7-5,78,73,69,72,70,68,100,91,78,30.10,30.03,9,1,13,0.29
2013-7-6,86,75,69,74,71,68,99,89,66,30.11,29.95,7,1,13,0.19
2013-7-7,79,73,67,71,68,66,99,87,66,30.03,29.94,15,2,17,0.82
2013-7-8,77,-16,-39,71,-17,-44,99,98,75,30.06,29.98,6,0,10,0.01
2013-7-10,86,74,68,80,72,67,99,93,81,29.83,29.71,15,2,26,1.99
2013-8-14,70,62,56,58,54,49,91,76,59,30.11,29.94,17,2,17,0.00
2013-8-15,73,62,51,58,54,50,97,77,55,30.15,30.07,12,0,12,0.00
2013-8-16,77,64,52,62,56,51,97,77,52,30.15,30.08,12,0,12,0.00
2013-8-17,82,68,57,64,59,54,94,74,49,30.20,30.13,11,1,11,0.00
2013-8-18,80,69,58,67,62,56,93,80,61,30.16,30.06,10,0,10,0.00
2013-8-19,82,62,-39,69,44,-100,99,73,51,30.19,30.00,11,0,11,0.00
2013-8-20,86,74,63,68,64,59,91,71,51,30.11,30.02,12,0,12,0.00
2013-8-21,89,76,64,70,66,62,93,73,50,30.12,29.97,10,0,10,0.00
2013-8-22,84,74,67,74,69,65,99,86,67,30.00,29.92,16,1,16,0.24
2013-8-23,84,74,62,72,64,54,99,73,42,30.13,29.94,13,1,13,0.01
2013-8-24,84,70,58,62,58,54,90,68,44,30.26,30.13,14,1,14,0.00
2013-8-25,86,73,60,69,62,57,94,71,48,30.28,30.14,14,1,14,0.00
2013-8-26,86,77,66,71,66,60,83,70,55,30.15,29.92,18,2,18,0.00
2013-8-27,82,68,70,75,53,-100,100,80,77,29.97,29.82,23,1,23,0.99
2013-8-28,76,46,71,75,8,-100,99,64,90,29.94,29.74,18,1,18,0.24
2013-8-29,86,46,70,76,-2,-100,100,46,63,30.00,29.90,15,0,15,0.01
2013-8-30,87,74,66,74,63,-100,99,80,60,29.94,29.72,17,1,17,0.00
2013-8-31,85,76,69,76,72,68,98,86,73,29.77,29.65,14,1,14,0.01
2013-9-1,82,60,68,75,41,-100,100,77,74,29.76,29.68,9,0,19,0.85
2013-9-2,77,37,66,73,-15,-100,96,45,74,29.79,29.66,18,1,18,0.00
2013-9-3,67,62,57,62,58,55,94,84,73,29.99,29.79,17,1,17,0.00
2013-9-4,79,66,54,66,59,53,98,79,55,30.06,29.97,14,1,14,0.01
2013-9-5,72,66,53,66,57,48,92,74,52,30.19,29.98,17,1,17,0.00
2013-9-6,75,62,48,59,52,47,97,74,39,30.24,30.06,12,0,12,0.00
2013-9-7,79,69,55,69,60,50,87,73,57,30.06,29.85,12,1,12,0.00
2013-9-8,77,70,58,69,64,51,97,82,62,30.02,29.83,9,1,16,0.00
2013-9-9,81,68,56,73,63,51,92,84,77,30.02,29.90,12,1,12,0.00
2013-9-10,96,84,74,78,74,70,91,74,51,29.99,29.90,17,3,17,0.00
2013-9-11,93,83,76,77,74,71,86,73,51,30.02,29.87,17,2,17,0.00
2013-9-12,76,70,58,71,66,57,98,90,70,29.90,29.75,19,1,19,0.21
2013-9-13,62,57,53,60,53,45,100,87,70,30.04,29.82,23,2,23,0.13
2013-9-14,66,56,46,53,48,43,93,75,59,30.12,30.03,12,0,12,0.00
2013-9-15,68,59,50,58,52,47,96,79,58,30.13,30.01,11,0,11,0.00
2013-9-16,67,58,49,59,55,48,99,88,73,30.29,30.05,9,1,13,0.01
2013-9-17,73,57,43,50,46,41,96,70,40,30.37,30.19,14,1,14,0.00
2013-9-18,76,63,51,61,54,45,92,74,57,30.19,30.02,11,1,11,0.00
2013-9-19,80,68,60,70,65,59,98,90,71,30.05,29.92,18,1,18,0.00
2013-9-20,83,73,66,75,69,65,100,90,75,29.93,29.70,20,2,20,0.48
2013-9-21,68,63,56,68,62,54,100,97,78,29.76,29.59,16,1,16,1.41
2013-9-22,61,55,52,57,49,45,96,80,64,30.01,29.76,15,1,16,0.03
2013-9-23,60,53,45,50,47,44,94,81,66,30.13,30.01,5,0,7,0.00
2013-9-24,70,53,40,57,48,39,98,84,60,30.12,29.95,12,1,12,0.01
2013-9-25,76,59,46,60,50,39,98,75,46,29.95,29.86,12,1,12,0.00
2013-9-26,76,61,46,58,52,45,100,74,37,30.07,29.90,12,1,12,0.00
2013-9-27,76,63,54,60,55,51,92,78,55,30.17,30.06,11,2,15,0.00
2013-9-28,78,65,56,62,57,53,93,76,54,30.18,30.04,14,1,14,0.00
2013-9-29,72,64,55,63,58,52,95,83,72,30.05,29.93,13,1,13,0.01
2013-9-30,65,62,60,63,61,59,99,96,90,29.97,29.91,10,0,10,0.13
2013-10-1,78,66,56,66,61,56,100,85,61,30.01,29.92,16,1,16,0.01
2013-10-2,78,68,59,70,64,58,96,87,74,30.03,29.94,11,1,11,0.00
2013-10-3,80,70,59,72,64,55,96,84,72,30.03,29.92,13,1,13,0.00
2013-10-4,80,71,66,71,68,65,98,89,69,30.00,29.94,13,1,13,0.02
2013-10-5,77,70,66,72,68,65,100,96,75,30.00,29.87,11,0,11,0.41
2013-10-6,78,71,56,71,68,55,99,91,73,29.87,29.61,27,2,27,0.52
2013-10-7,59,53,46,55,48,43,100,84,66,30.09,29.66,26,2,26,0.77
2013-10-8,70,56,44,54,48,43,99,77,46,30.25,30.09,12,1,12,0.00
2013-10-9,72,57,44,51,47,42,95,72,43,30.29,30.18,13,1,13,0.00
2013-10-10,65,55,46,54,47,40,90,74,55,30.22,30.07,15,0,15,0.00
2013-10-11,76,58,44,61,51,43,100,78,44,30.10,30.01,10,0,10,0.00
2013-10-12,78,65,54,66,57,44,90,76,65,30.08,30.01,12,1,12,0.00
2013-10-13,67,63,58,63,60,56,96,91,86,30.25,30.06,14,1,14,0.03
2013-10-14,66,56,47,56,50,44,97,81,62,30.32,30.21,14,1,14,0.01
2013-10-15,63,56,46,61,54,43,100,93,81,30.21,29.88,13,1,13,0.02
2013-10-16,68,60,50,65,58,47,100,94,79,29.88,29.74,20,1,20,1.02
2013-10-17,59,49,43,51,47,42,98,92,70,29.88,29.74,18,1,18,0.18
2013-10-18,63,52,44,49,46,42,93,79,60,29.94,29.82,19,2,19,0.00
2013-10-19,53,45,42,46,43,39,98,92,77,29.87,29.72,16,1,16,0.31
2013-10-20,58,49,41,44,41,37,90,75,56,29.93,29.87,20,2,20,0.01
2013-10-21,64,54,48,52,45,41,97,73,51,29.93,29.77,20,3,20,0.20
2013-10-22,49,43,37,47,35,32,97,74,56,29.93,29.80,18,2,18,0.04
2013-10-23,45,39,33,42,35,32,98,85,64,29.92,29.75,19,1,19,0.53
2013-10-24,40,35,32,37,33,31,100,94,87,30.12,29.89,20,1,20,0.71
2013-10-25,47,38,33,39,34,30,98,85,60,30.31,30.12,17,1,17,0.29
2013-10-26,45,41,35,40,32,28,95,72,62,30.18,29.82,18,4,27,0.04
2013-10-27,50,42,36,39,36,34,95,81,62,30.06,29.94,14,0,14,0.00
2013-10-28,56,43,32,46,38,31,95,83,64,30.31,30.04,7,0,9,0.00
2013-10-29,58,45,34,45,38,32,95,79,54,30.38,30.21,5,0,6,0.00
2013-10-30,66,54,43,54,46,38,88,74,57,30.20,29.97,12,1,12,0.00
2013-10-31,65,60,57,60,58,54,99,93,82,29.97,29.23,30,4,30,0.46
2013-11-1,60,52,47,59,48,43,98,85,77,29.66,29.16,27,4,27,0.21
2013-11-2,47,45,41,46,43,40,100,94,87,30.00,29.63,17,1,17,0.52
2013-11-3,48,39,32,40,34,26,98,83,62,30.45,30.00,11,1,13,0.00
2013-11-4,46,37,30,30,26,24,81,65,48,30.51,30.35,20,3,20,0.00
2013-11-5,59,50,41,46,39,30,70,66,61,30.39,30.22,14,1,14,0.00
2013-11-6,65,55,47,58,47,37,98,76,64,30.22,29.84,24,3,24,0.24
2013-11-7,48,29,38,47,-5,-100,98,60,67,30.09,29.89,24,-312,24,0.33
2013-11-8,42,10,39,32,-67,-100,74,18,64,30.25,30.06,17,-742,17,0.03
2013-11-9,57,12,50,42,-70,-100,59,12,52,30.22,29.82,29,-783,29,0.00
2013-11-10,45,6,44,35,-82,-100,70,9,63,30.21,29.87,0,-864,0,0.00
2013-11-11,46,3,43,34,-91,-100,68,4,61,30.23,29.96,0,-933,0,0.00
2013-11-12,36,10,30,29,-58,-100,90,26,72,30.47,30.15,19,-669,19,0.19
2013-11-13,36,11,27,25,-60,-100,78,21,55,30.52,30.25,16,-673,16,0.17
2013-11-14,51,15,34,28,-58,-100,65,16,39,30.25,30.01,12,-668,12,0.10
2013-11-15,51,11,41,31,-70,-100,56,11,44,30.10,30.00,0,-765,0,0.00
2013-11-16,60,17,44,50,-53,-100,85,25,70,30.14,29.86,23,-681,23,0.00
2013-11-17,61,9,58,58,-77,-100,93,13,87,29.87,29.35,0,-853,0,0.00
2013-11-18,44,6,42,37,-82,-100,82,10,74,30.07,29.51,26,-870,26,0.00
2013-11-19,40,7,36,28,-76,-100,72,13,63,30.39,30.05,5,-810,6,0.00
2013-11-20,47,15,29,27,-55,-100,90,18,37,30.44,30.23,21,-634,21,0.00
2013-11-21,-200,0,200,-100,-100,-100,0,0,100,30.31,30.14,0,-999,0,0.00
2013-11-22,-200,0,200,-100,-100,-100,0,0,100,30.25,30.06,0,-999,0,0.00
2013-11-23,32,4,28,28,-82,-100,89,11,62,30.38,30.14,19,-851,23,0.00
2013-11-24,-200,0,200,-100,-100,-100,0,0,100,30.45,30.33,0,-999,0,0.00